Weather reports worldwide

Advertisment
Lerwick, United Kingdom (3005): temperature & dewpoint: 14.09.2020 23:00:00 - 20.09.2020 23:00:00 (BST)Lerwick, United Kingdom (3005): temperature -20cm & temperature -100cm: 14.09.2020 23:00:00 - 20.09.2020 23:00:00 (BST)Lerwick, United Kingdom (3005): wind speed & gusts: 14.09.2020 23:00:00 - 20.09.2020 23:00:00 (BST)Lerwick, United Kingdom (3005): wind direction: 14.09.2020 23:00:00 - 20.09.2020 23:00:00 (BST)Lerwick, United Kingdom (3005): reduced air pressure: 14.09.2020 23:00:00 - 20.09.2020 23:00:00 (BST)Lerwick, United Kingdom (3005): visibility: 14.09.2020 23:00:00 - 20.09.2020 23:00:00 (BST)Lerwick, United Kingdom (3005): sunshine duration: 14.09.2020 23:00:00 - 20.09.2020 23:00:00 (BST)Lerwick, United Kingdom (3005): precipitation: 14.09.2020 23:00:00 - 20.09.2020 23:00:00 (BST)
Date & Time tt [°C] td [°C] tt -20cm [°C] tt -100cm [°C] ff [km/h] ff [kn] fx [km/h] fx [kn] dd ppp [hPa] vv [km] sd [min] rr [mm]
20.09.2020 23:00:00 11,3 11,3 - - 29 16 - - SW 1014,2 - 0 0,0
20.09.2020 22:00:00 11,9 11,8 - - 31 17 - - SSW 1015,6 8 0 0,0
20.09.2020 21:00:00 11,7 11,7 - - 31 17 48 26 SW 1016,5 5 0 0,0
20.09.2020 20:00:00 11,7 11,5 - - 34 18 - - WSW 1017,4 24 0 0,0
20.09.2020 19:00:00 11,6 11,2 - - 31 17 - - W 1017,6 24 0 0,0
20.09.2020 18:00:00 11,6 11,5 - - 26 14 - - SW 1018,1 5 0 0,0
20.09.2020 17:00:00 11,5 11,4 - - 28 15 - - W 1019,2 7 0 0,2
20.09.2020 16:00:00 11,6 11,3 - - 34 18 50 27 WNW 1019,6 5 0 0,0
20.09.2020 15:00:00 12,0 11,6 - - 37 20 46 25 W 1019,4 7 0 0,0
20.09.2020 14:00:00 12,1 11,5 - - 35 19 46 25 W 1020,0 17 0 0,0
20.09.2020 13:00:00 12,0 11,7 - - 37 20 48 26 W 1020,4 6 0 0,0
20.09.2020 12:00:00 12,1 12,0 - - 34 18 46 25 WSW 1020,5 3,6 0 0,0
20.09.2020 11:00:00 11,8 11,8 - - 31 17 - - WSW 1021,0 0,4 0 0,0
20.09.2020 10:00:00 11,3 11,3 - - 28 15 - - WSW 1021,2 0,8 0 0,0
20.09.2020 09:00:00 11,0 11,0 - - 24 13 - - WSW 1021,2 0,4 0 0,0
20.09.2020 08:00:00 10,7 10,7 - - 18 10 - - W 1021,5 0,3 0 0,0
20.09.2020 07:00:00 10,4 10,4 - - 21 11 - - W 1021,6 0,2 0 0,0
20.09.2020 06:00:00 10,2 10,1 - - 21 11 - - W 1021,7 0,2 0 0,0
20.09.2020 05:00:00 10,7 10,6 - - 28 15 - - W 1021,8 0,9 0 0,2
20.09.2020 04:00:00 11,0 10,9 - - 28 15 - - W 1021,7 0,2 0 0,0
20.09.2020 03:00:00 10,9 10,9 - - 24 13 - - W 1022,4 0,2 0 0,0
20.09.2020 02:00:00 10,8 10,8 - - 18 10 - - W 1022,8 0,5 0 0,0
20.09.2020 01:00:00 10,9 10,8 - - 21 11 - - WNW 1022,9 0,2 - 0,2
20.09.2020 00:00:00 11,2 11,1 - - 22 12 - - WSW 1023,6 0,1 0 0,0
19.09.2020 23:00:00 11,5 11,5 - - 18 10 - - WSW 1023,8 0,7 0 0,0
19.09.2020 22:00:00 11,5 11,5 - - 18 10 - - W 1024,1 9 0 0,0
19.09.2020 21:00:00 11,6 11,6 - - 13 7 - - W 1024,3 0,4 0 0,0
19.09.2020 20:00:00 11,6 11,6 - - 18 10 - - W 1024,1 0,1 0 0,0
19.09.2020 19:00:00 12,0 12,0 - - 15 8 - - WNW 1024,1 0,1 0 0,0
19.09.2020 18:00:00 12,4 12,4 - - 18 10 - - W 1024,2 7 0 0,0
19.09.2020 17:00:00 12,4 12,2 - - 16 9 - - W 1025,0 0,2 0 0,0
19.09.2020 16:00:00 12,6 12,6 - - 21 11 - - W 1025,2 0,3 0 0,0
19.09.2020 15:00:00 12,1 12,1 - - 18 10 - - SSW 1025,6 0,1 0 0,0
19.09.2020 14:00:00 12,6 12,4 - - 16 9 - - SSW 1026,1 25 0 0,0
19.09.2020 13:00:00 12,3 11,9 - - 16 9 - - W 1026,7 4,8 0 0,0
19.09.2020 12:00:00 12,3 12,0 - - 9 5 - - S 1026,8 45 0 0,0
19.09.2020 11:00:00 12,5 12,1 - - 8 4 - - SSW 1027,1 75 0 0,0
19.09.2020 10:00:00 11,8 11,8 11,9 11,2 13 7 - - W 1027,5 7 0 0,0
19.09.2020 09:00:00 11,4 11,4 - - 9 5 - - WSW 1027,5 10 0 0,0
19.09.2020 08:00:00 11,0 11,0 - - 8 4 - - WSW 1027,7 12 0 0,0
19.09.2020 07:00:00 10,9 10,9 - - 5 3 - - W 1027,5 75 0 0,0
19.09.2020 06:00:00 10,6 10,6 - - 5 3 - - SW 1027,6 7 0 0,0
19.09.2020 05:00:00 10,3 10,3 - - 8 4 - - W 1027,7 2,0 0 0,0
19.09.2020 04:00:00 10,6 10,6 - - 8 4 - - WSW 1028,0 0,2 0 0,0
19.09.2020 03:00:00 10,8 10,8 - - 11 6 - - W 1028,4 2,0 0 0,2
19.09.2020 02:00:00 10,8 10,8 - - 13 7 - - W 1028,5 0,2 0 0,0
19.09.2020 01:00:00 10,9 10,9 - - 13 7 - - WSW 1028,4 0,4 - 0,0
19.09.2020 00:00:00 11,0 10,8 - - 9 5 - - NW 1028,8 0,1 0 0,0
18.09.2020 23:00:00 11,2 11,2 - - 8 4 - - WNW 1028,9 - 0 0,0
18.09.2020 22:00:00 11,1 11,1 - - 5 3 - - W 1029,0 0,1 0 0,2
18.09.2020 21:00:00 11,0 11,0 - - 13 7 - - W 1029,1 1,4 0 0,0
18.09.2020 20:00:00 11,0 11,0 - - 8 4 - - WSW 1029,0 0,2 0 0,0
18.09.2020 19:00:00 11,2 11,2 - - 15 8 - - W 1028,8 0,6 0 0,0
18.09.2020 18:00:00 11,8 11,4 - - 21 11 - - NW 1028,5 11 12 0,0
18.09.2020 17:00:00 11,9 11,9 - - 21 11 - - WNW 1028,6 0,4 0 0,0
18.09.2020 16:00:00 13,1 12,3 - - 16 9 - - W 1028,5 12 6 0,0
18.09.2020 15:00:00 14,1 12,2 - - 13 7 - - WSW 1028,4 75 6 0,0
18.09.2020 14:00:00 12,7 11,9 - - 15 8 - - WNW 1028,6 45 18 0,0
18.09.2020 13:00:00 13,8 12,5 - - 21 11 - - WNW 1028,2 35 18 0,0
18.09.2020 12:00:00 12,8 12,0 - - 18 10 - - NW 1028,1 26 12 0,0
18.09.2020 11:00:00 13,0 12,0 - - 26 14 - - WNW 1027,8 35 6 0,0
18.09.2020 10:00:00 12,7 12,1 11,7 11,2 28 15 50 27 WNW 1027,4 20 30 0,0
18.09.2020 09:00:00 12,4 12,2 - - 39 21 46 25 WNW 1026,5 12 6 0,0
18.09.2020 08:00:00 12,3 12,2 - - 35 19 - - W 1026,3 6 0 0,0
18.09.2020 07:00:00 12,2 12,2 - - 29 16 - - WNW 1026,1 3,9 0 0,0
18.09.2020 06:00:00 12,2 12,2 - - 31 17 - - W 1025,9 3,2 0 0,0
18.09.2020 05:00:00 12,5 12,5 - - 37 20 46 25 W 1025,8 0,2 0 0,0
18.09.2020 04:00:00 12,6 12,6 - - 37 20 48 26 W 1025,7 0,4 0 0,0
18.09.2020 03:00:00 12,9 12,5 - - 35 19 48 26 WSW 1025,6 7 0 0,0
18.09.2020 02:00:00 12,8 12,2 - - 37 20 48 26 W 1025,3 10 0 0,0
18.09.2020 01:00:00 12,9 12,2 - - 34 18 48 26 W 1025,3 15 - 0,0
18.09.2020 00:00:00 13,0 12,0 - - 34 18 50 27 WSW 1025,4 20 0 0,0
17.09.2020 23:00:00 13,3 12,1 - - 37 20 48 26 WSW 1025,6 23 0 0,2
17.09.2020 22:00:00 13,3 12,3 - - 37 20 48 26 WSW 1025,8 4,9 0 0,0
17.09.2020 21:00:00 13,3 12,4 - - 37 20 50 27 W 1026,0 11 0 0,0
17.09.2020 20:00:00 13,1 12,4 - - 37 20 52 28 W 1026,2 3,8 0 0,0
17.09.2020 19:00:00 13,0 12,5 - - 37 20 52 28 WSW 1026,0 5 0 0,6
17.09.2020 18:00:00 13,4 12,1 - - 39 21 54 29 WSW 1026,0 28 0 0,0
17.09.2020 17:00:00 14,4 12,0 - - 44 24 54 29 WSW 1025,8 30 0 -
17.09.2020 16:00:00 13,9 11,9 - - 39 21 54 29 WSW 1026,2 25 0 0,0
17.09.2020 15:00:00 13,6 11,6 - - 37 20 52 28 WSW 1026,7 27 0 0,0
17.09.2020 14:00:00 13,7 11,5 - - 28 15 - - SW 1027,0 28 0 0,0
17.09.2020 13:00:00 12,2 10,6 - - 21 11 - - SSW 1027,4 22 0 0,0
17.09.2020 12:00:00 11,8 9,7 - - 26 14 - - SSW 1027,8 25 0 0,0
17.09.2020 11:00:00 11,4 9,4 - - 29 16 - - SSW 1028,0 25 0 0,0
17.09.2020 10:00:00 11,0 9,1 11,7 11,2 34 18 - - SSW 1028,4 29 0 0,0
17.09.2020 09:00:00 10,7 8,7 - - 24 13 - - SSW 1028,4 30 0 0,0
17.09.2020 08:00:00 9,9 7,9 - - 18 10 - - SSW 1028,9 40 0 0,0
17.09.2020 07:00:00 8,6 6,8 - - 21 11 - - SW 1029,4 55 0 0,0
17.09.2020 06:00:00 8,6 6,8 - - 21 11 - - SW 1029,7 60 0 0,0
17.09.2020 05:00:00 8,2 6,6 - - 15 8 - - SW 1030,2 50 0 0,0
17.09.2020 04:00:00 7,1 6,0 - - 13 7 - - SSW 1030,5 50 0 0,0
17.09.2020 03:00:00 7,9 6,2 - - 15 8 - - SW 1031,4 60 0 0,0
17.09.2020 02:00:00 8,8 6,2 - - 24 13 - - S 1031,5 70 0 0,0
17.09.2020 01:00:00 8,8 6,2 - - 18 10 - - S 1032,4 70 - 0,0
17.09.2020 00:00:00 7,9 5,3 - - 15 8 - - SSE 1033,0 75 0 0,0
16.09.2020 23:00:00 7,6 5,4 - - 9 5 - - SE 1033,1 75 0 0,0
16.09.2020 22:00:00 7,1 5,7 - - 2 1 - - E 1033,5 65 0 0,0
16.09.2020 21:00:00 7,8 5,5 - - 5 3 - - E 1033,8 75 0 0,0
16.09.2020 20:00:00 7,8 5,8 - - 5 3 - - E 1033,4 75 0 0,0
16.09.2020 19:00:00 8,9 5,4 - - 9 5 - - E 1033,0 75 24 0,0
16.09.2020 18:00:00 9,8 5,6 - - 13 7 - - E 1032,7 65 54 0,0
16.09.2020 17:00:00 10,6 5,5 - - 13 7 - - E 1033,0 60 60 0,0
16.09.2020 16:00:00 10,8 5,0 - - 9 5 - - E 1033,1 65 60 0,0
16.09.2020 15:00:00 11,2 5,3 - - 13 7 - - E 1032,8 70 60 0,0
16.09.2020 14:00:00 10,9 4,9 - - 15 8 - - NE 1032,8 65 60 0,0
16.09.2020 13:00:00 11,1 4,9 - - 15 8 - - NE 1032,4 70 60 0,0
16.09.2020 12:00:00 10,7 4,1 - - 18 10 - - NE 1032,3 75 36 0,0
16.09.2020 11:00:00 10,8 5,8 - - 15 8 - - NNE 1031,9 65 6 0,0
16.09.2020 10:00:00 10,1 6,1 11,7 11,2 16 9 - - N 1031,5 75 0 0,0
16.09.2020 09:00:00 9,4 6,1 - - 15 8 - - N 1030,9 75 18 0,0
16.09.2020 08:00:00 9,0 5,9 - - 11 6 - - N 1030,3 75 0 0,0
16.09.2020 07:00:00 8,7 6,2 - - 13 7 - - N 1029,5 75 0 0,0
16.09.2020 06:00:00 8,6 7,0 - - 13 7 - - N 1028,7 75 0 0,0
16.09.2020 05:00:00 8,8 7,2 - - 11 6 - - N 1027,9 75 0 0,0
16.09.2020 04:00:00 8,7 7,3 - - 16 9 - - N 1027,2 45 0 0,2
16.09.2020 03:00:00 8,7 6,9 - - 18 10 - - N 1026,6 65 0 0,0
16.09.2020 02:00:00 8,5 6,8 - - 22 12 - - N 1025,8 65 0 0,0
16.09.2020 01:00:00 7,7 6,4 - - 22 12 - - N 1024,8 50 - 0,0
16.09.2020 00:00:00 8,2 6,9 - - 22 12 - - N 1023,9 55 0 0,0
15.09.2020 23:00:00 8,6 8,0 - - 22 12 - - N 1023,0 30 0 0,2
15.09.2020 22:00:00 9,0 7,4 - - 22 12 - - N 1021,8 50 0 0,0
15.09.2020 21:00:00 9,4 7,8 - - 31 17 50 27 N 1020,5 40 0 0,0
15.09.2020 20:00:00 9,4 8,1 - - 35 19 65 35 N 1019,3 45 0 0,0
15.09.2020 19:00:00 9,7 9,0 - - 44 24 59 32 N 1017,6 16 0 1,6
15.09.2020 18:00:00 11,4 11,2 - - 29 16 - - N 1016,4 1,4 0 0,4
15.09.2020 17:00:00 12,6 12,6 - - 28 15 - - WNW 1015,6 6 0 0,4
15.09.2020 16:00:00 13,6 13,3 - - 22 12 - - WNW 1015,7 18 0 0,0
15.09.2020 15:00:00 13,3 13,3 - - 16 9 - - NW 1016,3 19 0 0,8
15.09.2020 14:00:00 12,5 12,5 - - 11 6 - - SW 1016,8 0,1 0 0,4
15.09.2020 13:00:00 13,1 13,1 - - 9 5 - - SSW 1017,3 0,1 0 0,0
15.09.2020 12:00:00 13,1 13,1 - - 8 4 - - S 1017,7 0,1 0 0,2
15.09.2020 11:00:00 13,2 13,2 - - 5 3 - - SSE 1018,0 1,7 0 0,0
15.09.2020 10:00:00 13,2 13,2 11,7 11,4 9 5 - - WSW 1018,3 6 0 0,6
15.09.2020 09:00:00 12,9 12,9 - - 11 6 - - W 1018,3 0,2 0 0,0
15.09.2020 08:00:00 12,2 12,2 - - 5 3 - - SW 1018,3 0,4 0 0,0
15.09.2020 07:00:00 12,0 12,0 - - 9 5 - - WSW 1018,2 - 0 0,2
15.09.2020 06:00:00 12,2 12,2 - - 9 5 - - WSW 1018,3 0,1 0 0,4
15.09.2020 05:00:00 12,3 12,3 - - 11 6 - - W 1018,3 5 0 0,4
15.09.2020 04:00:00 12,2 12,1 - - 11 6 - - NW 1018,6 0,2 0 0,0
15.09.2020 03:00:00 12,3 12,3 - - 15 8 - - NNW 1018,8 0,1 0 0,0
15.09.2020 02:00:00 12,3 12,3 - - 15 8 - - NNW 1018,8 0,1 0 0,0
15.09.2020 01:00:00 12,3 12,3 - - 16 9 - - NW 1019,0 0,1 - 0,2
15.09.2020 00:00:00 12,4 12,3 - - 18 10 - - NW 1019,1 0,2 0 0,0
14.09.2020 23:00:00 12,4 12,4 - - 18 10 - - W 1018,9 0,1 0 0,0

tt = temperature
td = dewpoint
tt -20cm = temperature -20cm
tt -100cm = temperature -100cm
ff = wind speed
fx = gusts
dd = wind direction
ppp = reduced air pressure
vv = visibility
sd = sunshine duration
rr = precipitation

Next stations